| time (UTC) | temp C | wind direction | speed KPH | gust KPH | rain 1hr cm | rain 24hr cm | rain mn cm | humidity % | barometer mb |
| 20260505201552 | 16 | 171 | 9.7 | 20.9 | 0.00 | 0.00 | 0.00 | 70 | 1010.4 |
| 20260505200818 | 16 | 175 | 9.7 | 25.7 | 0.00 | 0.00 | 0.00 | 70 | 1010.4 |
| 20260505200317 | 16 | 275 | 11.3 | 25.7 | 0.00 | 0.00 | 0.00 | 71 | 1010.5 |
| 20260505195819 | 16 | 200 | 9.7 | 22.5 | 0.00 | 0.00 | 0.00 | 71 | 1010.5 |
| 20260505195314 | 16 | 215 | 9.7 | 24.1 | 0.00 | 0.00 | 0.00 | 71 | 1010.6 |
| 20260505194814 | 16 | 161 | 11.3 | 24.1 | 0.00 | 0.00 | 0.00 | 71 | 1010.8 |
| 20260505194313 | 16 | 211 | 9.7 | 24.1 | 0.00 | 0.00 | 0.00 | 71 | 1010.7 |
| 20260505193815 | 16 | 264 | 9.7 | 24.1 | 0.00 | 0.00 | 0.00 | 71 | 1010.8 |
| 20260505193316 | 16 | 142 | 11.3 | 24.1 | 0.00 | 0.00 | 0.00 | 71 | 1010.9 |
| 20260505193045 | 16 | 160 | 9.7 | 24.1 | 0.00 | 0.00 | 0.00 | 71 | 1010.9 |
| 20260505192313 | 16 | 177 | 9.7 | 24.1 | 0.00 | 0.00 | 0.00 | 71 | 1011.0 |
| 20260505191815 | 16 | 209 | 9.7 | 22.5 | 0.00 | 0.00 | 0.00 | 72 | 1011.0 |
| 20260505191315 | 16 | 227 | 11.3 | 22.5 | 0.00 | 0.00 | 0.00 | 72 | 1011.1 |
| 20260505190816 | 16 | 184 | 11.3 | 22.5 | 0.00 | 0.00 | 0.00 | 72 | 1011.1 |
| 20260505190315 | 16 | 216 | 11.3 | 22.5 | 0.00 | 0.00 | 0.00 | 72 | 1011.1 |
| 20260505185816 | 16 | 134 | 9.7 | 20.9 | 0.00 | 0.00 | 0.00 | 72 | 1011.2 |
| 20260505185316 | 16 | 140 | 9.7 | 20.9 | 0.00 | 0.00 | 0.00 | 72 | 1011.2 |
| 20260505184816 | 16 | 233 | 9.7 | 25.7 | 0.00 | 0.00 | 0.00 | 72 | 1011.2 |
| 20260505184547 | 16 | 158 | 9.7 | 25.7 | 0.00 | 0.00 | 0.00 | 72 | 1011.4 |
| 20260505183815 | 16 | 192 | 9.7 | 24.1 | 0.00 | 0.00 | 0.00 | 72 | 1011.3 |
| 20260505183314 | 16 | 180 | 11.3 | 20.9 | 0.00 | 0.00 | 0.00 | 72 | 1011.3 |
| 20260505182815 | 16 | 160 | 9.7 | 20.9 | 0.00 | 0.00 | 0.00 | 72 | 1011.4 |
| 20260505182308 | 16 | 186 | 9.7 | 22.5 | 0.00 | 0.00 | 0.00 | 72 | 1011.3 |
| 20260505181803 | 16 | 173 | 11.3 | 22.5 | 0.00 | 0.00 | 0.00 | 72 | 1011.3 |
| 20260505181258 | 16 | 149 | 11.3 | 22.5 | 0.00 | 0.00 | 0.00 | 72 | 1011.4 |
| 20260505180758 | 16 | 217 | 9.7 | 20.9 | 0.00 | 0.00 | 0.00 | 72 | 1011.6 |
| 20260505180259 | 16 | 212 | 11.3 | 24.1 | 0.00 | 0.00 | 0.00 | 73 | 1011.6 |
| 20260505175759 | 16 | 135 | 9.7 | 24.1 | 0.00 | 0.00 | 0.00 | 72 | 1011.5 |
| 20260505175258 | 16 | 143 | 9.7 | 20.9 | 0.00 | 0.00 | 0.00 | 72 | 1011.5 |
| 20260505175028 | 16 | 210 | 9.7 | 27.4 | 0.00 | 0.00 | 0.00 | 73 | 1011.5 |
| 20260505174257 | 16 | 194 | 11.3 | 27.4 | 0.00 | 0.00 | 0.00 | 73 | 1011.6 |
| 20260505173758 | 16 | 164 | 9.7 | 22.5 | 0.00 | 0.00 | 0.00 | 73 | 1011.6 |
| 20260505173254 | 16 | 197 | 9.7 | 22.5 | 0.00 | 0.00 | 0.00 | 73 | 1011.7 |
| 20260505172754 | 16 | 178 | 8.0 | 20.9 | 0.00 | 0.00 | 0.00 | 72 | 1011.6 |
| 20260505172255 | 16 | 233 | 8.0 | 19.3 | 0.00 | 0.00 | 0.00 | 72 | 1011.6 |
| 20260505171752 | 16 | 289 | 8.0 | 22.5 | 0.00 | 0.00 | 0.00 | 72 | 1011.6 |
| 20260505171253 | 16 | 159 | 8.0 | 22.5 | 0.00 | 0.00 | 0.00 | 72 | 1011.6 |
| 20260505170801 | 16 | 168 | 8.0 | 17.7 | 0.00 | 0.00 | 0.00 | 72 | 1011.6 |
| 20260505170752 | 16 | 196 | 8.0 | 17.7 | 0.00 | 0.00 | 0.00 | 72 | 1011.6 |
| 20260505165755 | 16 | 236 | 8.0 | 24.1 | 0.00 | 0.00 | 0.00 | 73 | 1011.5 |
| 20260505165254 | 16 | 199 | 8.0 | 24.1 | 0.00 | 0.00 | 0.00 | 73 | 1011.5 |
| 20260505164746 | 16 | 216 | 8.0 | 22.5 | 0.00 | 0.00 | 0.00 | 73 | 1011.5 |
| 20260505164242 | 16 | 164 | 8.0 | 22.5 | 0.00 | 0.00 | 0.00 | 73 | 1011.5 |
| 20260505163742 | 16 | 237 | 9.7 | 22.5 | 0.00 | 0.00 | 0.00 | 73 | 1011.6 |
| 20260505163242 | 15 | 171 | 9.7 | 22.5 | 0.00 | 0.00 | 0.00 | 74 | 1011.7 |
| 20260505163016 | 16 | 159 | 9.7 | 24.1 | 0.00 | 0.00 | 0.00 | 73 | 1011.7 |
| 20260505162241 | 15 | 150 | 9.7 | 24.1 | 0.00 | 0.00 | 0.00 | 74 | 1011.8 |
| 20260505161743 | 15 | 200 | 9.7 | 22.5 | 0.00 | 0.00 | 0.00 | 74 | 1011.7 |
| 20260505161242 | 16 | 169 | 8.0 | 22.5 | 0.00 | 0.00 | 0.00 | 73 | 1011.7 |
| 20260505160742 | 16 | 217 | 9.7 | 27.4 | 0.00 | 0.00 | 0.00 | 73 | 1011.8 |
| 20260505160242 | 16 | 196 | 9.7 | 27.4 | 0.00 | 0.00 | 0.00 | 73 | 1011.9 |
| 20260505153235 | 16 | 213 | 8.0 | 20.9 | 0.00 | 0.00 | 0.00 | 73 | 1012.2 |
| 20260505152729 | 16 | 45 | 6.4 | 14.5 | 0.00 | 0.00 | 0.00 | 73 | 1012.2 |
| 20260505152225 | 16 | 164 | 6.4 | 14.5 | 0.00 | 0.00 | 0.00 | 73 | 1012.1 |
| 20260505151718 | 16 | 217 | 6.4 | 16.1 | 0.00 | 0.00 | 0.00 | 73 | 1012.1 |
| 20260505151443 | 16 | 217 | 8.0 | 14.5 | 0.00 | 0.00 | 0.00 | 73 | 1012.3 |
| 20260505150707 | 16 | 222 | 6.4 | 14.5 | 0.00 | 0.00 | 0.00 | 73 | 1012.3 |
| 20260505150200 | 16 | 248 | 6.4 | 14.5 | 0.00 | 0.00 | 0.00 | 73 | 1012.4 |
| 20260505140555 | 15 | 165 | 6.4 | 17.7 | 0.00 | 0.00 | 0.00 | 74 | 1012.3 |
| 20260505140320 | 15 | 224 | 6.4 | 17.7 | 0.00 | 0.00 | 0.00 | 74 | 1012.3 |
| 20260505124418 | 15 | 211 | 6.4 | 17.7 | 0.00 | 0.00 | 0.00 | 78 | 1012.0 |
| 20260505124144 | 15 | 177 | 6.4 | 16.1 | 0.00 | 0.00 | 0.00 | 78 | 1012.0 |
| 20260505123636 | 15 | 216 | 6.4 | 16.1 | 0.00 | 0.00 | 0.00 | 78 | 1012.1 |
| 20260505122901 | 15 | 257 | 4.8 | 14.5 | 0.00 | 0.00 | 0.00 | 77 | 1012.0 |
| 20260505122624 | 15 | 0 | 4.8 | 14.5 | 0.00 | 0.00 | 0.00 | 78 | 1012.0 |
| 20260505122118 | 15 | 190 | 6.4 | 14.5 | 0.00 | 0.00 | 0.00 | 80 | 1011.9 |
| 20260505121342 | 14 | 202 | 6.4 | 14.5 | 0.00 | 0.00 | 0.00 | 79 | 1011.9 |
| 20260505120836 | 15 | 157 | 4.8 | 14.5 | 0.00 | 0.00 | 0.00 | 79 | 1012.0 |
| 20260505120330 | 15 | 156 | 4.8 | 14.5 | 0.00 | 0.00 | 0.00 | 79 | 1011.9 |
| 20260505115825 | 14 | 234 | 4.8 | 14.5 | 0.00 | 0.00 | 0.00 | 80 | 1011.9 |
| 20260505115319 | 14 | 304 | 4.8 | 11.3 | 0.00 | 0.00 | 0.00 | 81 | 1011.9 |
| 20260505115043 | 14 | 186 | 4.8 | 14.5 | 0.00 | 0.00 | 0.00 | 81 | 1011.9 |
| 20260505114307 | 14 | 185 | 4.8 | 16.1 | 0.00 | 0.00 | 0.00 | 83 | 1011.8 |
| 20260505113802 | 13 | 204 | 6.4 | 14.5 | 0.00 | 0.00 | 0.00 | 84 | 1011.8 |
| 20260505113256 | 13 | 157 | 4.8 | 16.1 | 0.00 | 0.00 | 0.00 | 84 | 1011.9 |
| 20260505112748 | 13 | 223 | 4.8 | 12.9 | 0.00 | 0.00 | 0.00 | 84 | 1011.8 |
| 20260505112242 | 13 | 174 | 4.8 | 12.9 | 0.00 | 0.00 | 0.00 | 85 | 1011.7 |
| 20260505111735 | 12 | 185 | 4.8 | 14.5 | 0.00 | 0.00 | 0.00 | 85 | 1011.7 |
| 20260505111230 | 12 | 172 | 4.8 | 14.5 | 0.00 | 0.00 | 0.00 | 86 | 1011.7 |
| 20260505110725 | 12 | 170 | 4.8 | 9.7 | 0.00 | 0.00 | 0.00 | 86 | 1011.8 |
| 20260505110218 | 12 | 234 | 4.8 | 12.9 | 0.00 | 0.00 | 0.00 | 86 | 1011.8 |
| 20260505102130 | 12 | 202 | 3.2 | 11.3 | 0.00 | 0.00 | 0.00 | 88 | 1011.4 |
| 20260505101623 | 12 | 213 | 4.8 | 11.3 | 0.00 | 0.00 | 0.00 | 88 | 1011.4 |
| 20260505101119 | 12 | 202 | 4.8 | 11.3 | 0.00 | 0.00 | 0.00 | 87 | 1011.2 |
| 20260505100612 | 12 | 243 | 3.2 | 11.3 | 0.00 | 0.00 | 0.00 | 87 | 1011.2 |
| 20260505100107 | 12 | 188 | 3.2 | 11.3 | 0.00 | 0.00 | 0.00 | 86 | 1011.2 |
| 20260505095601 | 12 | 210 | 1.6 | 8.0 | 0.00 | 0.00 | 0.00 | 85 | 1011.1 |
| 20260505095054 | 12 | 182 | 3.2 | 11.3 | 0.00 | 0.00 | 0.00 | 85 | 1011.2 |
| 20260505094548 | 13 | 179 | 4.8 | 11.3 | 0.00 | 0.00 | 0.00 | 83 | 1011.1 |
| 20260505094314 | 13 | 167 | 4.8 | 12.9 | 0.00 | 0.00 | 0.00 | 84 | 1011.1 |
| 20260505093537 | 13 | 206 | 3.2 | 12.9 | 0.00 | 0.00 | 0.00 | 84 | 1011.1 |
| 20260505093029 | 13 | 184 | 4.8 | 14.5 | 0.00 | 0.00 | 0.00 | 84 | 1011.0 |
| 20260505092754 | 13 | 176 | 4.8 | 14.5 | 0.00 | 0.00 | 0.00 | 85 | 1011.1 |
| 20260505092017 | 13 | 212 | 6.4 | 17.7 | 0.00 | 0.00 | 0.00 | 85 | 1011.1 |
| 20260505091513 | 13 | 230 | 8.0 | 17.7 | 0.00 | 0.00 | 0.00 | 85 | 1011.1 |
| 20260505091006 | 13 | 212 | 8.0 | 17.7 | 0.00 | 0.00 | 0.00 | 85 | 1011.0 |
| 20260505090500 | 13 | 218 | 6.4 | 17.7 | 0.00 | 0.00 | 0.00 | 85 | 1011.0 |
| 20260505090225 | 13 | 165 | 4.8 | 12.9 | 0.00 | 0.00 | 0.00 | 85 | 1010.9 |
| 20260505085719 | 13 | 227 | 4.8 | 12.9 | 0.00 | 0.00 | 0.00 | 85 | 1010.9 |
| 20260505084945 | 13 | 212 | 4.8 | 14.5 | 0.00 | 0.00 | 0.00 | 85 | 1011.0 |
| 20260505084445 | 13 | 231 | 4.8 | 14.5 | 0.00 | 0.00 | 0.00 | 85 | 1011.0 |
| 20260505083944 | 13 | 229 | 4.8 | 11.3 | 0.00 | 0.00 | 0.00 | 85 | 1010.9 |
| 20260505083442 | 13 | 217 | 4.8 | 11.3 | 0.00 | 0.00 | 0.00 | 85 | 1011.0 |
| 20260505082945 | 13 | 206 | 6.4 | 14.5 | 0.00 | 0.00 | 0.00 | 85 | 1010.9 |
| 20260505082443 | 13 | 190 | 6.4 | 14.5 | 0.00 | 0.00 | 0.00 | 85 | 1010.9 |
| 20260505081942 | 13 | 0 | 6.4 | 14.5 | 0.00 | 0.00 | 0.00 | 85 | 1010.9 |
| 20260505081438 | 13 | 0 | 6.4 | 14.5 | 0.00 | 0.00 | 0.00 | 85 | 1010.9 |
| 20260505080940 | 13 | 219 | 4.8 | 12.9 | 0.00 | 0.00 | 0.00 | 85 | 1010.9 |
| 20260505080440 | 13 | 0 | 4.8 | 12.9 | 0.00 | 0.00 | 0.00 | 85 | 1010.9 |
| 20260505075938 | 13 | 223 | 3.2 | 8.0 | 0.00 | 0.00 | 0.00 | 86 | 1010.9 |
| 20260505075437 | 13 | 204 | 1.6 | 6.4 | 0.00 | 0.00 | 0.00 | 85 | 1010.9 |
| 20260505074935 | 13 | 187 | 3.2 | 9.7 | 0.00 | 0.00 | 0.00 | 85 | 1010.9 |
| 20260505074832 | 13 | 219 | 4.8 | 12.9 | 0.00 | 0.00 | 0.00 | 85 | 1010.9 |
| 20260505074720 | 13 | 223 | 3.2 | 9.7 | 0.00 | 0.00 | 0.00 | 85 | 1010.9 |
| 20260505073434 | 13 | 192 | 3.2 | 12.9 | 0.00 | 0.00 | 0.00 | 86 | 1010.8 |
| 20260505072935 | 13 | 211 | 3.2 | 11.3 | 0.00 | 0.00 | 0.00 | 87 | 1010.8 |
| 20260505072435 | 13 | 188 | 1.6 | 11.3 | 0.00 | 0.00 | 0.00 | 87 | 1010.8 |
| 20260505071932 | 12 | 195 | 1.6 | 4.8 | 0.00 | 0.00 | 0.00 | 86 | 1010.8 |
| 20260505071435 | 12 | 211 | 1.6 | 11.3 | 0.00 | 0.00 | 0.00 | 86 | 1010.8 |
| 20260505070933 | 12 | 227 | 3.2 | 11.3 | 0.00 | 0.00 | 0.00 | 87 | 1010.8 |
| 20260505070435 | 12 | 187 | 1.6 | 8.0 | 0.00 | 0.00 | 0.00 | 87 | 1010.8 |
| 20260505065932 | 12 | 198 | 3.2 | 8.0 | 0.00 | 0.00 | 0.00 | 87 | 1010.8 |
| 20260505065434 | 12 | 173 | 4.8 | 12.9 | 0.00 | 0.00 | 0.00 | 87 | 1010.8 |
| 20260505064939 | 12 | 169 | 4.8 | 11.3 | 0.00 | 0.00 | 0.00 | 85 | 1010.9 |
| 20260505064933 | 12 | 184 | 4.8 | 12.9 | 0.00 | 0.00 | 0.00 | 86 | 1010.8 |
| 20260505064557 | 13 | 200 | 4.8 | 11.3 | 0.00 | 0.00 | 0.00 | 84 | 1010.9 |
| 20260505063434 | 13 | 173 | 4.8 | 11.3 | 0.00 | 0.00 | 0.00 | 83 | 1010.9 |
| 20260505062933 | 13 | 197 | 6.4 | 14.5 | 0.00 | 0.00 | 0.00 | 83 | 1010.9 |
| 20260505062434 | 13 | 171 | 6.4 | 16.1 | 0.00 | 0.00 | 0.00 | 83 | 1010.9 |
| 20260505061933 | 13 | 209 | 6.4 | 16.1 | 0.00 | 0.00 | 0.00 | 83 | 1010.9 |
| 20260505061432 | 13 | 212 | 6.4 | 16.1 | 0.00 | 0.00 | 0.00 | 83 | 1010.9 |
| 20260505060933 | 13 | 232 | 6.4 | 16.1 | 0.00 | 0.00 | 0.00 | 84 | 1010.9 |
| 20260505060430 | 13 | 176 | 6.4 | 14.5 | 0.00 | 0.00 | 0.00 | 84 | 1010.8 |
| 20260505055931 | 13 | 194 | 6.4 | 14.5 | 0.00 | 0.00 | 0.00 | 84 | 1010.8 |
| 20260505055431 | 12 | 229 | 6.4 | 12.9 | 0.00 | 0.00 | 0.00 | 85 | 1010.9 |
| 20260505054931 | 12 | 200 | 6.4 | 14.5 | 0.00 | 0.00 | 0.00 | 85 | 1011.0 |
| 20260505054433 | 12 | 159 | 6.4 | 16.1 | 0.00 | 0.00 | 0.00 | 86 | 1011.0 |
| 20260505053931 | 12 | 211 | 6.4 | 16.1 | 0.00 | 0.00 | 0.00 | 86 | 1011.1 |
| 20260505053437 | 12 | 239 | 6.4 | 12.9 | 0.00 | 0.00 | 0.00 | 85 | 1011.1 |
| 20260505052931 | 12 | 234 | 6.4 | 16.1 | 0.00 | 0.00 | 0.00 | 86 | 1011.1 |
| 20260505052433 | 12 | 181 | 4.8 | 16.1 | 0.00 | 0.00 | 0.00 | 86 | 1011.2 |
| 20260505051925 | 12 | 208 | 4.8 | 12.9 | 0.00 | 0.00 | 0.00 | 86 | 1011.3 |
| 20260505051655 | 12 | 155 | 4.8 | 14.5 | 0.00 | 0.00 | 0.00 | 86 | 1011.3 |
| 20260505050923 | 12 | 167 | 4.8 | 14.5 | 0.00 | 0.00 | 0.00 | 85 | 1011.4 |
| 20260505050424 | 12 | 187 | 4.8 | 12.9 | 0.00 | 0.00 | 0.00 | 85 | 1011.4 |
| 20260505041419 | 12 | 213 | 4.8 | 12.9 | 0.00 | 0.00 | 0.00 | 86 | 1011.6 |
| 20260505040917 | 12 | 209 | 4.8 | 12.9 | 0.00 | 0.00 | 0.00 | 86 | 1011.6 |
| 20260505040416 | 12 | 148 | 4.8 | 12.9 | 0.00 | 0.00 | 0.00 | 86 | 1011.6 |
| 20260505035916 | 12 | 224 | 4.8 | 12.9 | 0.00 | 0.00 | 0.00 | 86 | 1011.6 |
| 20260505035417 | 12 | 173 | 4.8 | 12.9 | 0.00 | 0.00 | 0.00 | 86 | 1011.6 |
| 20260505034911 | 12 | 211 | 4.8 | 11.3 | 0.00 | 0.00 | 0.00 | 86 | 1011.6 |
| 20260505034636 | 12 | 169 | 4.8 | 9.7 | 0.00 | 0.00 | 0.00 | 86 | 1011.6 |
| 20260505033859 | 12 | 203 | 4.8 | 16.1 | 0.00 | 0.00 | 0.00 | 86 | 1011.5 |
| 20260505033353 | 11 | 228 | 4.8 | 16.1 | 0.00 | 0.00 | 0.00 | 86 | 1011.6 |
| 20260505032847 | 12 | 227 | 4.8 | 12.9 | 0.00 | 0.00 | 0.00 | 86 | 1011.6 |
| 20260505032341 | 12 | 220 | 4.8 | 11.3 | 0.00 | 0.00 | 0.00 | 85 | 1011.7 |
| 20260505031835 | 12 | 192 | 4.8 | 11.3 | 0.00 | 0.00 | 0.00 | 85 | 1011.7 |
| 20260505031329 | 12 | 201 | 4.8 | 11.3 | 0.00 | 0.00 | 0.00 | 85 | 1011.7 |
| 20260505030823 | 12 | 211 | 4.8 | 11.3 | 0.00 | 0.00 | 0.00 | 85 | 1011.7 |
| 20260505030318 | 12 | 211 | 4.8 | 11.3 | 0.00 | 0.00 | 0.00 | 85 | 1011.8 |
| 20260505025824 | 12 | 263 | 4.8 | 11.3 | 0.00 | 0.00 | 0.00 | 85 | 1011.8 |
| 20260505025306 | 12 | 252 | 4.8 | 12.9 | 0.00 | 0.00 | 0.00 | 85 | 1011.9 |
| 20260505024800 | 12 | 190 | 4.8 | 12.9 | 0.00 | 0.00 | 0.00 | 85 | 1011.9 |
| 20260505024524 | 12 | 219 | 4.8 | 11.3 | 0.00 | 0.00 | 0.00 | 85 | 1011.9 |
| 20260505023748 | 12 | 210 | 4.8 | 14.5 | 0.00 | 0.00 | 0.00 | 84 | 1011.9 |
| 20260505023242 | 12 | 202 | 6.4 | 14.5 | 0.00 | 0.00 | 0.00 | 84 | 1011.9 |
| 20260505022734 | 12 | 215 | 6.4 | 14.5 | 0.00 | 0.00 | 0.00 | 84 | 1011.8 |
| 20260505022228 | 12 | 242 | 6.4 | 12.9 | 0.00 | 0.00 | 0.00 | 83 | 1011.9 |
| 20260505021724 | 12 | 181 | 6.4 | 19.3 | 0.00 | 0.00 | 0.00 | 83 | 1011.9 |
| 20260505020711 | 12 | 224 | 8.0 | 19.3 | 0.00 | 0.00 | 0.00 | 82 | 1012.0 |
| 20260505020204 | 13 | 202 | 8.0 | 19.3 | 0.00 | 0.00 | 0.00 | 81 | 1012.0 |
| 20260505015659 | 13 | 223 | 8.0 | 17.7 | 0.00 | 0.00 | 0.00 | 81 | 1011.9 |
| 20260505015424 | 13 | 231 | 8.0 | 17.7 | 0.00 | 0.00 | 0.00 | 80 | 1011.7 |
| 20260505014647 | 13 | 326 | 9.7 | 17.7 | 0.00 | 0.00 | 0.00 | 80 | 1011.7 |
| 20260505014142 | 13 | 221 | 8.0 | 17.7 | 0.00 | 0.00 | 0.00 | 81 | 1011.7 |
| 20260505013636 | 13 | 232 | 8.0 | 17.7 | 0.00 | 0.00 | 0.00 | 81 | 1011.8 |
| 20260505013128 | 13 | 237 | 8.0 | 17.7 | 0.00 | 0.00 | 0.00 | 80 | 1011.7 |
| 20260505012624 | 13 | 175 | 6.4 | 17.7 | 0.00 | 0.00 | 0.00 | 80 | 1011.7 |
| 20260505012118 | 13 | 189 | 6.4 | 16.1 | 0.00 | 0.00 | 0.00 | 79 | 1011.7 |
| 20260505011612 | 13 | 200 | 8.0 | 16.1 | 0.00 | 0.00 | 0.00 | 79 | 1011.6 |
| 20260505011104 | 13 | 202 | 6.4 | 16.1 | 0.00 | 0.00 | 0.00 | 79 | 1011.6 |
| 20260505010559 | 13 | 175 | 6.4 | 14.5 | 0.00 | 0.00 | 0.00 | 78 | 1011.6 |
| 20260505010053 | 13 | 156 | 4.8 | 11.3 | 0.00 | 0.00 | 0.00 | 78 | 1011.5 |
| 20260505005549 | 13 | 213 | 4.8 | 16.1 | 0.00 | 0.00 | 0.00 | 79 | 1011.4 |
| 20260505005043 | 13 | 246 | 6.4 | 16.1 | 0.00 | 0.00 | 0.00 | 80 | 1011.4 |
| 20260505004547 | 12 | 187 | 6.4 | 14.5 | 0.00 | 0.00 | 0.00 | 82 | 1011.3 |
| 20260505004029 | 12 | 175 | 6.4 | 12.9 | 0.00 | 0.00 | 0.00 | 82 | 1011.2 |
| 20260505003756 | 12 | 240 | 6.4 | 14.5 | 0.00 | 0.00 | 0.00 | 82 | 1011.2 |
| 20260505003024 | 12 | 164 | 6.4 | 14.5 | 0.00 | 0.00 | 0.00 | 83 | 1011.2 |
| 20260505002511 | 12 | 171 | 4.8 | 14.5 | 0.00 | 0.00 | 0.00 | 84 | 1011.2 |
| 20260505002006 | 12 | 250 | 4.8 | 11.3 | 0.00 | 0.00 | 0.00 | 83 | 1011.2 |
| 20260505001458 | 12 | 206 | 6.4 | 12.9 | 0.00 | 0.00 | 0.00 | 83 | 1011.1 |
| 20260505000954 | 12 | 196 | 6.4 | 12.9 | 0.00 | 0.00 | 0.00 | 83 | 1011.1 |
| 20260505000720 | 12 | 164 | 6.4 | 12.9 | 0.00 | 0.00 | 0.00 | 83 | 1011.0 |
| 20260504235943 | 12 | 181 | 6.4 | 14.5 | 0.00 | 0.00 | 0.00 | 83 | 1011.0 |
| 20260504235435 | 12 | 227 | 6.4 | 14.5 | 0.00 | 0.00 | 0.00 | 83 | 1011.0 |
| 20260504234930 | 12 | 220 | 6.4 | 17.7 | 0.00 | 0.00 | 0.00 | 83 | 1011.0 |
| 20260504234422 | 12 | 188 | 6.4 | 17.7 | 0.00 | 0.00 | 0.00 | 83 | 1011.0 |
| 20260504233917 | 12 | 218 | 6.4 | 22.5 | 0.00 | 0.00 | 0.00 | 82 | 1010.9 |
| 20260504233411 | 12 | 168 | 6.4 | 22.5 | 0.00 | 0.00 | 0.00 | 82 | 1011.0 |
| 20260504232905 | 12 | 164 | 6.4 | 14.5 | 0.00 | 0.00 | 0.00 | 81 | 1010.9 |
| 20260504232401 | 12 | 233 | 6.4 | 14.5 | 0.00 | 0.00 | 0.00 | 80 | 1010.9 |
| 20260504231853 | 12 | 225 | 6.4 | 14.5 | 0.00 | 0.00 | 0.00 | 79 | 1010.9 |
| 20260504231349 | 13 | 168 | 8.0 | 14.5 | 0.00 | 0.00 | 0.00 | 79 | 1010.9 |
| 20260504230849 | 13 | 215 | 6.4 | 19.3 | 0.00 | 0.00 | 0.00 | 79 | 1010.8 |
| 20260504230348 | 13 | 239 | 8.0 | 19.3 | 0.00 | 0.00 | 0.00 | 78 | 1010.8 |
| 20260504225849 | 13 | 189 | 8.0 | 17.7 | 0.00 | 0.00 | 0.00 | 78 | 1010.8 |
| 20260504225621 | 13 | 221 | 6.4 | 17.7 | 0.00 | 0.00 | 0.00 | 77 | 1010.9 |
| 20260504224848 | 13 | 165 | 6.4 | 17.7 | 0.00 | 0.00 | 0.00 | 77 | 1010.9 |
| 20260504224348 | 13 | 180 | 6.4 | 14.5 | 0.00 | 0.00 | 0.00 | 77 | 1010.8 |
| 20260504223849 | 13 | 221 | 8.0 | 16.1 | 0.00 | 0.00 | 0.00 | 76 | 1010.8 |
| 20260504223349 | 13 | 217 | 8.0 | 20.9 | 0.00 | 0.00 | 0.00 | 76 | 1010.9 |
| 20260504222849 | 13 | 180 | 9.7 | 20.9 | 0.00 | 0.00 | 0.00 | 76 | 1010.9 |
| 20260504222348 | 13 | 179 | 8.0 | 20.9 | 0.00 | 0.00 | 0.00 | 76 | 1010.8 |
| 20260504222119 | 13 | 223 | 8.0 | 17.7 | 0.00 | 0.00 | 0.00 | 75 | 1010.8 |
| 20260504221344 | 13 | 189 | 8.0 | 17.7 | 0.00 | 0.00 | 0.00 | 76 | 1010.8 |
| 20260504220845 | 13 | 199 | 8.0 | 19.3 | 0.00 | 0.00 | 0.00 | 75 | 1010.8 |
| 20260504220346 | 13 | 210 | 8.0 | 22.5 | 0.00 | 0.00 | 0.00 | 75 | 1010.8 |
| 20260504215846 | 13 | 207 | 8.0 | 22.5 | 0.00 | 0.00 | 0.00 | 75 | 1010.8 |
| 20260504215619 | 13 | 252 | 8.0 | 19.3 | 0.00 | 0.00 | 0.00 | 75 | 1010.7 |
| 20260504214848 | 14 | 190 | 8.0 | 24.1 | 0.00 | 0.00 | 0.00 | 75 | 1010.7 |
| 20260504214341 | 14 | 143 | 8.0 | 24.1 | 0.00 | 0.00 | 0.00 | 75 | 1010.7 |
| 20260504213835 | 14 | 194 | 9.7 | 22.5 | 0.00 | 0.00 | 0.00 | 75 | 1010.7 |
| 20260504213329 | 14 | 216 | 9.7 | 22.5 | 0.00 | 0.00 | 0.00 | 74 | 1010.7 |
| 20260504212824 | 14 | 215 | 8.0 | 22.5 | 0.00 | 0.00 | 0.00 | 74 | 1010.7 |
| 20260504212317 | 14 | 145 | 8.0 | 19.3 | 0.00 | 0.00 | 0.00 | 74 | 1010.7 |
| 20260504211811 | 14 | 149 | 9.7 | 17.7 | 0.00 | 0.00 | 0.00 | 73 | 1010.8 |
| 20260504211305 | 14 | 162 | 9.7 | 19.3 | 0.00 | 0.00 | 0.00 | 73 | 1010.8 |
| 20260504211030 | 14 | 177 | 8.0 | 19.3 | 0.00 | 0.00 | 0.00 | 73 | 1010.8 |
| 20260504210252 | 14 | 180 | 8.0 | 19.3 | 0.00 | 0.00 | 0.00 | 73 | 1010.7 |
| 20260504205747 | 14 | 163 | 8.0 | 25.7 | 0.00 | 0.00 | 0.00 | 73 | 1010.8 |
| 20260504205242 | 14 | 195 | 8.0 | 25.7 | 0.00 | 0.00 | 0.00 | 73 | 1010.7 |
| 20260504204734 | 15 | 171 | 8.0 | 17.7 | 0.00 | 0.00 | 0.00 | 73 | 1010.8 |
| 20260504204228 | 15 | 165 | 8.0 | 16.1 | 0.00 | 0.00 | 0.00 | 73 | 1010.8 |
| 20260504203723 | 15 | 184 | 8.0 | 17.7 | 0.00 | 0.00 | 0.00 | 73 | 1010.8 |
| 20260504203217 | 15 | 186 | 8.0 | 19.3 | 0.00 | 0.00 | 0.00 | 72 | 1010.8 |
| 20260504202711 | 15 | 178 | 8.0 | 22.5 | 0.00 | 0.00 | 0.00 | 72 | 1010.8 |
| 20260504202205 | 15 | 170 | 8.0 | 22.5 | 0.00 | 0.00 | 0.00 | 72 | 1010.8 |